User: anonymous   Login
Location: Unspecified
(0.0000°N, 0.0000°E)
Time: 21:08:35
(UTC+00:00)
Language:

Envisat - Orbit

View from above orbital plane
View from above orbital plane
View from above satellite
View from above satellite

Ground track
Ground track

The orbit data is extracted from the following two-line orbital elements,

1 27386U 02009A   19292.50004068  .00000002  00000-0  14116-4 0  9992
2 27386  98.1451 307.2173 0001195  93.5767  50.6668 14.37960118923849
Epoch (UTC): 19 October 2019 12:00:03
Eccentricity: 0.0001195
inclination: 98.1451°
perigee height: 764 km
apogee height: 766 km
right ascension of ascending node: 307.2173°
argument of perigee: 93.5767°
revolutions per day: 14.37960118
mean anomaly at epoch: 50.6668°
orbit number at epoch: 92384

The dashed part of the orbit path shows where the satellite is in the earth's shadow,  

DLR